Pacific - Georgia Basin: Past 24 Hour Conditions

 

Vancouver Int'l Airport

04:00 AM PDT 27 August 2016
Disclaimer

This table is a summary of hourly weather conditions for the past 24 hours.
Please note that these observations might not always be representative of weather conditions over their associated marine area.

Date / Time
(PDT)
Wind(knots) Conditions Visibility(km) Pressure(kPa) Air tempC) Relative humidity(%) Dew pointC) Humidex
27 August 2016
4:00 WNW 10 Partly Cloudy 48 100.7 18 83 15 *
3:00 WNW 8 Mostly Cloudy 48 100.7 18 83 15 *
2:00 WNW 6 Partly Cloudy 48 100.7 18 88 16 *
1:00 W 9 Mainly Clear 48 100.7 19 82 16 *
0:00 WSW 6 Clear 48 100.8 19 88 17 *
26 August 2016
23:00 NW 3 Clear 48 100.8 18 81 14 *
22:00 N 1 Mainly Clear 48 100.8 20 71 15 24
21:00 WNW 5 Partly Cloudy 48 100.8 19 80 15 *
20:00 WNW 5 Mostly Cloudy 48 100.8 21 68 15 25
19:00 W 3 Cloudy 48 100.8 25 44 12 27
18:00 WSW 3 Mostly Cloudy 48 100.9 26 40 11 27
17:00 SW 3 Mostly Cloudy 48 101.0 25 47 13 28
16:00 WSW 4 Mostly Cloudy 48 101.1 25 48 13 28
15:00 SW 6 Cloudy 48 101.1 24 55 15 28
14:00 WSW 4 Cloudy 48 101.2 24 51 14 27
13:00 WSW 6 Partly Cloudy 48 101.3 22 69 16 27
12:00 WSW 6 Mostly Cloudy 48 101.3 22 59 14 26
11:00 SW 7 Mostly Cloudy 48 101.3 23 67 16 27
10:00 S 2 Mostly Cloudy 48 101.4 23 61 15 27
9:00 ESE 2 Mostly Cloudy 48 101.4 21 59 13 24
8:00 NNW 6 Cloudy 48 101.4 18 77 14 *
7:00 calm Cloudy 48 101.4 18 78 14 *
6:00 SSW 2 Mainly Clear 48 101.4 16 89 14 *
5:00 NNW 2 Clear 48 101.4 17 75 12 *
4:00 NW 8 Clear 48 101.4 18 76 13 *

Zoom-in to make a selection

Map of Pacific - Georgia Basin marine weather areas Tsawwassen Ferry Terminal Sentry Shoal - 46131 Halibut Bank - 46146 La Perouse Bank - 46206 Discovery Island Esquimalt Harbour Kelp Reefs Malahat Race Rocks Lightstation Saturna Island Sheringham Point University of Victoria Victoria Gonzales Victoria Int'l Airport Ballenas Islands Campbell River Airport Comox Airport Entrance Island Fanny Island Nanaimo Airport Sisters Islets Estevan Point Tofino Airport Grief Point Powell River Airport Sechelt Point Atkinson Sand Heads Lightstation Vancouver Harbour Vancouver Int'l Airport West Vancouver Port Alberni Howe Sound - Pam Rocks Squamish Airport
Legend:
buoy Buoy
land station Land Station

Pacific - Georgia Basin Area

Another Region

What we are doing

Date modified: